Location: Newark
(3.0500°N, 36.0167°E)
Time: 00:55:31
(UTC+00:00)

Tiros 1 despin weight - Visible Passes

Search period start: 21 August 2019 00:00
Search period end: 31 August 2019 00:00
Orbit: 594 x 642 km, 48.2° (Epoch: 20 August)

Date Brightness Start Highest point End Pass type
(mag) Time Alt. Az. Time Alt. Az. Time Alt. Az.
23 Aug ? 16:25:39 10° SSE 16:27:42 13° SE 16:27:46 13° SE visible
23 Aug ? 18:04:54 10° WSW 18:04:57 10° WSW 18:04:57 10° WSW visible
24 Aug ? 16:40:15 10° SSW 16:44:17 34° SE 16:45:36 28° E visible
25 Aug ? 16:56:24 10° SW 17:00:50 80° NW 17:03:39 22° NE visible
26 Aug ? 17:13:36 10° WSW 17:17:23 28° NW 17:21:09 10° N visible
27 Aug ? 17:33:13 10° WNW 17:34:02 10° NW 17:34:51 10° NW visible
28 Aug ? 02:15:54 10° NNE 02:17:53 13° NE 02:19:53 10° ENE visible
28 Aug ? 16:04:50 10° SW 16:09:08 50° NW 16:13:23 10° NNE visible
29 Aug ? 02:30:25 10° NNW 02:34:32 32° NE 02:38:41 10° ESE visible
29 Aug ? 16:22:37 10° W 16:25:43 19° NW 16:28:48 10° N visible
30 Aug ? 02:46:28 10° NW 02:51:05 88° NE 02:55:46 10° SE visible
